Year,Month,Day,Hour,Minute,Value (Times are PST for temperature in C)
2018,10,22,00,00,6.50
2018,10,22,00,01,6.50
2018,10,22,00,02,6.50
2018,10,22,00,03,6.50
2018,10,22,00,04,6.50
2018,10,22,00,05,6.40
2018,10,22,00,06,6.40
2018,10,22,00,07,6.40
2018,10,22,00,08,6.40
2018,10,22,00,09,6.40
2018,10,22,00,10,6.40
2018,10,22,00,11,6.30
2018,10,22,00,12,6.30
2018,10,22,00,13,6.30
2018,10,22,00,14,6.30
2018,10,22,00,15,6.30
2018,10,22,00,16,6.20
2018,10,22,00,17,6.20
2018,10,22,00,18,6.20
2018,10,22,00,19,6.30
2018,10,22,00,20,6.30
2018,10,22,00,21,6.30
2018,10,22,00,22,6.30
2018,10,22,00,23,6.30
2018,10,22,00,24,6.40
2018,10,22,00,25,6.40
2018,10,22,00,26,6.40
2018,10,22,00,27,6.40
2018,10,22,00,28,6.40
2018,10,22,00,29,6.40
2018,10,22,00,30,6.40
2018,10,22,00,31,6.40
2018,10,22,00,32,6.40
2018,10,22,00,33,6.40
2018,10,22,00,34,6.40
2018,10,22,00,35,6.40
2018,10,22,00,36,6.40
2018,10,22,00,37,6.30
2018,10,22,00,38,6.30
2018,10,22,00,39,6.30
2018,10,22,00,40,6.30
2018,10,22,00,41,6.30
2018,10,22,00,42,6.20
2018,10,22,00,43,6.20
2018,10,22,00,44,6.30
2018,10,22,00,45,6.30
2018,10,22,00,46,6.30
2018,10,22,00,47,6.30
2018,10,22,00,48,6.20
2018,10,22,00,49,6.20
2018,10,22,00,50,6.20
2018,10,22,00,51,6.20
2018,10,22,00,52,6.20
2018,10,22,00,53,6.10
2018,10,22,00,54,6.10
2018,10,22,00,55,6.10
2018,10,22,00,56,6.10
2018,10,22,00,57,6.00
2018,10,22,00,58,6.00
2018,10,22,00,59,6.00
2018,10,22,01,00,6.00
2018,10,22,01,01,6.00
2018,10,22,01,02,6.00
2018,10,22,01,03,6.00
2018,10,22,01,04,6.00
2018,10,22,01,05,6.00
2018,10,22,01,06,5.90
2018,10,22,01,07,5.90
2018,10,22,01,08,5.90
2018,10,22,01,09,5.90
2018,10,22,01,10,5.90
2018,10,22,01,11,5.90
2018,10,22,01,12,5.90
2018,10,22,01,13,5.90
2018,10,22,01,14,5.90
2018,10,22,01,15,5.90
2018,10,22,01,16,5.90
2018,10,22,01,17,5.90
2018,10,22,01,18,5.90
2018,10,22,01,19,5.90
2018,10,22,01,20,5.80
2018,10,22,01,21,5.80
2018,10,22,01,22,5.80
2018,10,22,01,23,5.80
2018,10,22,01,24,5.70
2018,10,22,01,25,5.70
2018,10,22,01,26,5.70
2018,10,22,01,27,5.70
2018,10,22,01,28,5.70
2018,10,22,01,29,5.70
2018,10,22,01,30,5.70
2018,10,22,01,31,5.70
2018,10,22,01,32,5.70
2018,10,22,01,33,5.70
2018,10,22,01,34,5.70
2018,10,22,01,35,5.70
2018,10,22,01,36,5.70
2018,10,22,01,37,5.70
2018,10,22,01,38,5.70
2018,10,22,01,39,5.70
2018,10,22,01,40,5.70
2018,10,22,01,41,5.70
2018,10,22,01,42,5.70
2018,10,22,01,43,5.80
2018,10,22,01,44,5.80
2018,10,22,01,45,5.80
2018,10,22,01,46,5.80
2018,10,22,01,47,5.80
2018,10,22,01,48,5.80
2018,10,22,01,49,5.80
2018,10,22,01,50,5.80
2018,10,22,01,51,5.80
2018,10,22,01,52,5.80
2018,10,22,01,53,5.90
2018,10,22,01,54,5.90
2018,10,22,01,55,5.90
2018,10,22,01,56,5.80
2018,10,22,01,57,5.80
2018,10,22,01,58,5.80
2018,10,22,01,59,5.80
2018,10,22,02,00,5.80
2018,10,22,02,01,5.80
2018,10,22,02,02,5.80
2018,10,22,02,03,5.80
2018,10,22,02,04,5.80
2018,10,22,02,05,5.80
2018,10,22,02,06,5.80
2018,10,22,02,07,5.80
2018,10,22,02,08,5.80
2018,10,22,02,09,5.80
2018,10,22,02,10,5.80
2018,10,22,02,11,5.80
2018,10,22,02,12,5.80
2018,10,22,02,13,5.70
2018,10,22,02,14,5.70
2018,10,22,02,15,5.70
2018,10,22,02,16,5.70
2018,10,22,02,17,5.70
2018,10,22,02,18,5.60
2018,10,22,02,19,5.60
2018,10,22,02,20,5.60
2018,10,22,02,21,5.60
2018,10,22,02,22,5.60
2018,10,22,02,23,5.60
2018,10,22,02,24,5.60
2018,10,22,02,25,5.50
2018,10,22,02,26,5.50
2018,10,22,02,27,5.50
2018,10,22,02,28,5.50
2018,10,22,02,29,5.50
2018,10,22,02,30,5.50
2018,10,22,02,31,5.50
2018,10,22,02,32,5.40
2018,10,22,02,33,5.40
2018,10,22,02,34,5.40
2018,10,22,02,35,5.40
2018,10,22,02,36,5.40
2018,10,22,02,37,5.40
2018,10,22,02,38,5.40
2018,10,22,02,39,5.40
2018,10,22,02,40,5.40
2018,10,22,02,41,5.40
2018,10,22,02,42,5.40
2018,10,22,02,43,5.40
2018,10,22,02,44,5.40
2018,10,22,02,45,5.40
2018,10,22,02,46,5.40
2018,10,22,02,47,5.40
2018,10,22,02,48,5.40
2018,10,22,02,49,5.30
2018,10,22,02,50,5.30
2018,10,22,02,51,5.30
2018,10,22,02,52,5.30
2018,10,22,02,53,5.30
2018,10,22,02,54,5.30
2018,10,22,02,55,5.30
2018,10,22,02,56,5.30
2018,10,22,02,57,5.30
2018,10,22,02,58,5.30
2018,10,22,02,59,5.30
2018,10,22,03,00,5.30
2018,10,22,03,01,5.30
2018,10,22,03,02,5.30
2018,10,22,03,03,5.30
2018,10,22,03,04,5.30
2018,10,22,03,05,5.30
2018,10,22,03,06,5.30
2018,10,22,03,07,5.30
2018,10,22,03,08,5.30
2018,10,22,03,09,5.30
2018,10,22,03,10,5.30
2018,10,22,03,11,5.30
2018,10,22,03,12,5.30
2018,10,22,03,13,5.30
2018,10,22,03,14,5.30
2018,10,22,03,15,5.30
2018,10,22,03,16,5.30
2018,10,22,03,17,5.30
2018,10,22,03,18,5.40
2018,10,22,03,19,5.40
2018,10,22,03,20,5.50
2018,10,22,03,21,5.50
2018,10,22,03,22,5.50
2018,10,22,03,23,5.50
2018,10,22,03,24,5.50
2018,10,22,03,25,5.50
2018,10,22,03,26,5.40
2018,10,22,03,27,5.40
2018,10,22,03,28,5.40
2018,10,22,03,29,5.40
2018,10,22,03,30,5.40
2018,10,22,03,31,5.30
2018,10,22,03,32,5.30
2018,10,22,03,33,5.30
2018,10,22,03,34,5.30
2018,10,22,03,35,5.20
2018,10,22,03,36,5.20
2018,10,22,03,37,5.20
2018,10,22,03,38,5.20
2018,10,22,03,39,5.20
2018,10,22,03,40,5.20
2018,10,22,03,41,5.20
2018,10,22,03,42,5.10
2018,10,22,03,43,5.10
2018,10,22,03,44,5.10
2018,10,22,03,45,5.10
2018,10,22,03,46,5.10
2018,10,22,03,47,5.10
2018,10,22,03,48,5.10
2018,10,22,03,49,5.10
2018,10,22,03,50,5.10
2018,10,22,03,51,5.10
2018,10,22,03,52,5.10
2018,10,22,03,53,5.10
2018,10,22,03,54,5.10
2018,10,22,03,55,5.10
2018,10,22,03,56,5.00
2018,10,22,03,57,5.00
2018,10,22,03,58,5.00
2018,10,22,03,59,4.90
2018,10,22,04,00,4.90
2018,10,22,04,01,4.90
2018,10,22,04,02,4.90
2018,10,22,04,03,4.90
2018,10,22,04,04,4.90
2018,10,22,04,05,4.90
2018,10,22,04,06,4.90
2018,10,22,04,07,4.90
2018,10,22,04,08,4.90
2018,10,22,04,09,5.00
2018,10,22,04,10,5.00
2018,10,22,04,11,5.00
2018,10,22,04,12,5.00
2018,10,22,04,13,5.00
2018,10,22,04,14,5.00
2018,10,22,04,15,4.90
2018,10,22,04,16,4.90
2018,10,22,04,17,4.90
2018,10,22,04,18,4.90
2018,10,22,04,19,4.90
2018,10,22,04,20,4.80
2018,10,22,04,21,4.80
2018,10,22,04,22,4.80
2018,10,22,04,23,4.80
2018,10,22,04,24,4.70
2018,10,22,04,25,4.70
2018,10,22,04,26,4.70
2018,10,22,04,27,4.70
2018,10,22,04,28,4.70
2018,10,22,04,29,4.70
2018,10,22,04,30,4.70
2018,10,22,04,31,4.70
2018,10,22,04,32,4.70
2018,10,22,04,33,4.70
2018,10,22,04,34,4.70
2018,10,22,04,35,4.70
2018,10,22,04,36,4.70
2018,10,22,04,37,4.70
2018,10,22,04,38,4.70
2018,10,22,04,39,4.70
2018,10,22,04,40,4.70
2018,10,22,04,41,4.70
2018,10,22,04,42,4.70
2018,10,22,04,43,4.70
2018,10,22,04,44,4.70
2018,10,22,04,45,4.70
2018,10,22,04,46,4.60
2018,10,22,04,47,4.60
2018,10,22,04,48,4.60
2018,10,22,04,49,4.60
2018,10,22,04,50,4.60
2018,10,22,04,51,4.60
2018,10,22,04,52,4.60
2018,10,22,04,53,4.60
2018,10,22,04,54,4.60
2018,10,22,04,55,4.60
2018,10,22,04,56,4.60
2018,10,22,04,57,4.60
2018,10,22,04,58,4.60
2018,10,22,04,59,4.60
2018,10,22,05,00,4.60
2018,10,22,05,01,4.60
2018,10,22,05,02,4.60
2018,10,22,05,03,4.60
2018,10,22,05,04,4.60
2018,10,22,05,05,4.60
2018,10,22,05,06,4.60
2018,10,22,05,07,4.60
2018,10,22,05,08,4.60
2018,10,22,05,09,4.50
2018,10,22,05,10,4.50
2018,10,22,05,11,4.50
2018,10,22,05,12,4.50
2018,10,22,05,13,4.50
2018,10,22,05,14,4.50
2018,10,22,05,15,4.50
2018,10,22,05,16,4.50
2018,10,22,05,17,4.50
2018,10,22,05,18,4.40
2018,10,22,05,19,4.40
2018,10,22,05,20,4.40
2018,10,22,05,21,4.40
2018,10,22,05,22,4.40
2018,10,22,05,23,4.40
2018,10,22,05,24,4.40
2018,10,22,05,25,4.40
2018,10,22,05,26,4.40
2018,10,22,05,27,4.40
2018,10,22,05,28,4.40
2018,10,22,05,29,4.30
2018,10,22,05,30,4.30
2018,10,22,05,31,4.30
2018,10,22,05,32,4.30
2018,10,22,05,33,4.30
2018,10,22,05,34,4.30
2018,10,22,05,35,4.30
2018,10,22,05,36,4.30
2018,10,22,05,37,4.30
2018,10,22,05,38,4.30
2018,10,22,05,39,4.30
2018,10,22,05,40,4.30
2018,10,22,05,41,4.30
2018,10,22,05,42,4.30
2018,10,22,05,43,4.30
2018,10,22,05,44,4.30
2018,10,22,05,45,4.30
2018,10,22,05,46,4.30
2018,10,22,05,47,4.30
2018,10,22,05,48,4.40
2018,10,22,05,49,4.40
2018,10,22,05,50,4.40
2018,10,22,05,51,4.40
2018,10,22,05,52,4.40
2018,10,22,05,53,4.40
2018,10,22,05,54,4.40
2018,10,22,05,55,4.40
2018,10,22,05,56,4.40
2018,10,22,05,57,4.40
2018,10,22,05,58,4.30
2018,10,22,05,59,4.30
2018,10,22,06,00,4.30
2018,10,22,06,01,4.30
2018,10,22,06,02,4.30
2018,10,22,06,03,4.30
2018,10,22,06,04,4.30
2018,10,22,06,05,4.30
2018,10,22,06,06,4.30
2018,10,22,06,07,4.30
2018,10,22,06,08,4.40
2018,10,22,06,09,4.40
2018,10,22,06,10,4.40
2018,10,22,06,11,4.40
2018,10,22,06,12,4.40
2018,10,22,06,13,4.40
2018,10,22,06,14,4.40
2018,10,22,06,15,4.30
2018,10,22,06,16,4.30
2018,10,22,06,17,4.30
2018,10,22,06,18,4.30
2018,10,22,06,19,4.30
2018,10,22,06,20,4.30
2018,10,22,06,21,4.30
2018,10,22,06,22,4.30
2018,10,22,06,23,4.30
2018,10,22,06,24,4.30
2018,10,22,06,25,4.30
2018,10,22,06,26,4.30
2018,10,22,06,27,4.30
2018,10,22,06,28,4.20
2018,10,22,06,29,4.20
2018,10,22,06,30,4.20
2018,10,22,06,31,4.20
2018,10,22,06,32,4.20
2018,10,22,06,33,4.20
2018,10,22,06,34,4.20
2018,10,22,06,35,4.20
2018,10,22,06,36,4.20
2018,10,22,06,37,4.20
2018,10,22,06,38,4.20
2018,10,22,06,39,4.20
2018,10,22,06,40,4.20
2018,10,22,06,41,4.20
2018,10,22,06,42,4.20
2018,10,22,06,43,4.20
2018,10,22,06,44,4.20
2018,10,22,06,45,4.20
2018,10,22,06,46,4.20
2018,10,22,06,47,4.30
2018,10,22,06,48,4.30
2018,10,22,06,49,4.30
2018,10,22,06,50,4.30
2018,10,22,06,51,4.30
2018,10,22,06,52,4.30
2018,10,22,06,53,4.30
2018,10,22,06,54,4.30
2018,10,22,06,55,4.20
2018,10,22,06,56,4.30
2018,10,22,06,57,4.30
2018,10,22,06,58,4.30
2018,10,22,06,59,4.30
2018,10,22,07,00,4.30
2018,10,22,07,01,4.30
2018,10,22,07,02,4.30
2018,10,22,07,03,4.30
2018,10,22,07,04,4.30
2018,10,22,07,05,4.30
2018,10,22,07,06,4.30
2018,10,22,07,07,4.30
2018,10,22,07,08,4.30
2018,10,22,07,09,4.30
2018,10,22,07,10,4.30
2018,10,22,07,11,4.30
2018,10,22,07,12,4.30
2018,10,22,07,13,4.30
2018,10,22,07,14,4.30
2018,10,22,07,15,4.30
2018,10,22,07,16,4.30
2018,10,22,07,17,4.30
2018,10,22,07,18,4.30
2018,10,22,07,19,4.20
2018,10,22,07,20,4.20
2018,10,22,07,21,4.20
2018,10,22,07,22,4.20
2018,10,22,07,23,4.20
2018,10,22,07,24,4.20
2018,10,22,07,25,4.20
2018,10,22,07,26,4.20
2018,10,22,07,27,4.20
2018,10,22,07,28,4.20
2018,10,22,07,29,4.20
2018,10,22,07,30,4.20
2018,10,22,07,31,4.20
2018,10,22,07,32,4.20
2018,10,22,07,33,4.20
2018,10,22,07,34,4.20
2018,10,22,07,35,4.20
2018,10,22,07,36,4.20
2018,10,22,07,37,4.10
2018,10,22,07,38,4.10
2018,10,22,07,39,4.10
2018,10,22,07,40,4.10
2018,10,22,07,41,4.10
2018,10,22,07,42,4.20
2018,10,22,07,43,4.20
2018,10,22,07,44,4.20
2018,10,22,07,45,4.20
2018,10,22,07,46,4.20
2018,10,22,07,47,4.20
2018,10,22,07,48,4.20
2018,10,22,07,49,4.20
2018,10,22,07,50,4.20
2018,10,22,07,51,4.20
2018,10,22,07,52,4.20
2018,10,22,07,53,4.20
2018,10,22,07,54,4.10
2018,10,22,07,55,4.10
2018,10,22,07,56,4.10
2018,10,22,07,57,4.10
2018,10,22,07,58,4.10
2018,10,22,07,59,4.20
2018,10,22,08,00,4.20
2018,10,22,08,01,4.20
2018,10,22,08,02,4.20
2018,10,22,08,03,4.20
2018,10,22,08,04,4.20
2018,10,22,08,05,4.20
2018,10,22,08,06,4.20
2018,10,22,08,07,4.20
2018,10,22,08,08,4.20
2018,10,22,08,09,4.30
2018,10,22,08,10,4.30
2018,10,22,08,11,4.30
2018,10,22,08,12,4.30
2018,10,22,08,13,4.30
2018,10,22,08,14,4.30
2018,10,22,08,15,4.30
2018,10,22,08,16,4.30
2018,10,22,08,17,4.40
2018,10,22,08,18,4.40
2018,10,22,08,19,4.40
2018,10,22,08,20,4.40
2018,10,22,08,21,4.40
2018,10,22,08,22,4.40
2018,10,22,08,23,4.40
2018,10,22,08,24,4.40
2018,10,22,08,25,4.40
2018,10,22,08,26,4.40
2018,10,22,08,27,4.40
2018,10,22,08,28,4.40
2018,10,22,08,29,4.40
2018,10,22,08,30,4.40
2018,10,22,08,31,4.40
2018,10,22,08,32,4.40
2018,10,22,08,33,4.40
2018,10,22,08,34,4.50
2018,10,22,08,35,4.50
2018,10,22,08,36,4.60
2018,10,22,08,37,4.60
2018,10,22,08,38,4.60
2018,10,22,08,39,4.70
2018,10,22,08,40,4.70
2018,10,22,08,41,4.70
2018,10,22,08,42,4.80
2018,10,22,08,43,4.80
2018,10,22,08,44,4.90
2018,10,22,08,45,5.00
2018,10,22,08,46,5.10
2018,10,22,08,47,5.20
2018,10,22,08,48,5.30
2018,10,22,08,49,5.30
2018,10,22,08,50,5.40
2018,10,22,08,51,5.50
2018,10,22,08,52,5.60
2018,10,22,08,53,5.70
2018,10,22,08,54,5.70
2018,10,22,08,55,5.80
2018,10,22,08,56,5.80
2018,10,22,08,57,5.90
2018,10,22,08,58,5.90
2018,10,22,08,59,6.00
2018,10,22,09,00,6.10
2018,10,22,09,01,6.20
2018,10,22,09,02,6.20
2018,10,22,09,03,6.40
2018,10,22,09,04,6.50
2018,10,22,09,05,6.70
2018,10,22,09,06,6.80
2018,10,22,09,07,6.90
2018,10,22,09,08,7.10
2018,10,22,09,09,7.20
2018,10,22,09,10,7.30
2018,10,22,09,11,7.40
2018,10,22,09,12,7.60
2018,10,22,09,13,7.70
2018,10,22,09,14,7.80
2018,10,22,09,15,7.90
2018,10,22,09,16,8.00
2018,10,22,09,17,8.20
2018,10,22,09,18,8.20
2018,10,22,09,19,8.30
2018,10,22,09,20,8.30
2018,10,22,09,21,8.30
2018,10,22,09,22,8.40
2018,10,22,09,23,8.40
2018,10,22,09,24,8.50
2018,10,22,09,25,8.50
2018,10,22,09,26,8.50
2018,10,22,09,27,8.50
2018,10,22,09,28,8.60
2018,10,22,09,29,8.60
2018,10,22,09,30,8.60
2018,10,22,09,31,8.60
2018,10,22,09,32,8.70
2018,10,22,09,33,8.70
2018,10,22,09,34,8.80
2018,10,22,09,35,8.90
2018,10,22,09,36,8.90
2018,10,22,09,37,9.00
2018,10,22,09,38,9.10
2018,10,22,09,39,9.10
2018,10,22,09,40,9.20
2018,10,22,09,41,9.30
2018,10,22,09,42,9.40
2018,10,22,09,43,9.50
2018,10,22,09,44,9.50
2018,10,22,09,45,9.60
2018,10,22,09,46,9.70
2018,10,22,09,47,9.70
2018,10,22,09,48,9.80
2018,10,22,09,49,9.90
2018,10,22,09,50,9.90
2018,10,22,09,51,9.90
2018,10,22,09,52,9.90
2018,10,22,09,53,10.00
2018,10,22,09,54,10.00
2018,10,22,09,55,10.10
2018,10,22,09,56,10.10
2018,10,22,09,57,10.20
2018,10,22,09,58,10.20
2018,10,22,09,59,10.30
2018,10,22,10,00,10.30
2018,10,22,10,01,10.20
2018,10,22,10,02,10.20
2018,10,22,10,03,10.20
2018,10,22,10,04,10.20
2018,10,22,10,05,10.10
2018,10,22,10,06,10.10
2018,10,22,10,07,10.10
2018,10,22,10,08,10.10
2018,10,22,10,09,10.10
2018,10,22,10,10,10.10
2018,10,22,10,11,10.20
2018,10,22,10,12,10.20
2018,10,22,10,13,10.30
2018,10,22,10,14,10.40
2018,10,22,10,15,10.50
2018,10,22,10,16,10.60
2018,10,22,10,17,10.60
2018,10,22,10,18,10.70
2018,10,22,10,19,10.70
2018,10,22,10,20,10.80
2018,10,22,10,21,10.80
2018,10,22,10,22,10.80
2018,10,22,10,23,10.90
2018,10,22,10,24,11.00
2018,10,22,10,25,11.10
2018,10,22,10,26,11.10
2018,10,22,10,27,11.10
2018,10,22,10,28,11.10
2018,10,22,10,29,11.20
2018,10,22,10,30,11.20
2018,10,22,10,31,11.30
2018,10,22,10,32,11.30
2018,10,22,10,33,11.30
2018,10,22,10,34,11.30
2018,10,22,10,35,11.30
2018,10,22,10,36,11.30
2018,10,22,10,37,11.30
2018,10,22,10,38,11.20
2018,10,22,10,39,11.20
2018,10,22,10,40,11.20
2018,10,22,10,41,11.20
2018,10,22,10,42,11.20
2018,10,22,10,43,11.30
2018,10,22,10,44,11.40
2018,10,22,10,45,11.40
2018,10,22,10,46,11.50
2018,10,22,10,47,11.60
2018,10,22,10,48,11.60
2018,10,22,10,49,11.60
2018,10,22,10,50,11.60
2018,10,22,10,51,11.70
2018,10,22,10,52,11.70
2018,10,22,10,53,11.80
2018,10,22,10,54,11.80
2018,10,22,10,55,11.90
2018,10,22,10,56,12.00
2018,10,22,10,57,12.00
2018,10,22,10,58,12.10
2018,10,22,10,59,12.20
2018,10,22,11,00,12.20
2018,10,22,11,01,12.30
2018,10,22,11,02,12.30
2018,10,22,11,03,12.30
2018,10,22,11,04,12.30
2018,10,22,11,05,12.30
2018,10,22,11,06,12.30
2018,10,22,11,07,12.30
2018,10,22,11,08,12.40
2018,10,22,11,09,12.50
2018,10,22,11,10,12.60
2018,10,22,11,11,12.60
2018,10,22,11,12,12.70
2018,10,22,11,13,12.70
2018,10,22,11,14,12.70
2018,10,22,11,15,12.80
2018,10,22,11,16,12.80
2018,10,22,11,17,12.80
2018,10,22,11,18,12.90
2018,10,22,11,19,12.90
2018,10,22,11,20,12.90
2018,10,22,11,21,13.00
2018,10,22,11,22,13.00
2018,10,22,11,23,13.10
2018,10,22,11,24,13.20
2018,10,22,11,25,13.20
2018,10,22,11,26,13.20
2018,10,22,11,27,13.30
2018,10,22,11,28,13.30
2018,10,22,11,29,13.30
2018,10,22,11,30,13.30
2018,10,22,11,31,13.40
2018,10,22,11,32,13.40
2018,10,22,11,33,13.40
2018,10,22,11,34,13.40
2018,10,22,11,35,13.30
2018,10,22,11,36,13.30
2018,10,22,11,37,13.30
2018,10,22,11,38,13.30
2018,10,22,11,39,13.30
2018,10,22,11,40,13.30
2018,10,22,11,41,13.30
2018,10,22,11,42,13.40
2018,10,22,11,43,13.40
2018,10,22,11,44,13.50
2018,10,22,11,45,13.50
2018,10,22,11,46,13.50
2018,10,22,11,47,13.60
2018,10,22,11,48,13.60
2018,10,22,11,49,13.70
2018,10,22,11,50,13.80
2018,10,22,11,51,13.80
2018,10,22,11,52,13.80
2018,10,22,11,53,13.90
2018,10,22,11,54,13.90
2018,10,22,11,55,13.90
2018,10,22,11,56,13.90
2018,10,22,11,57,13.90
2018,10,22,11,58,13.90
2018,10,22,11,59,13.90
2018,10,22,12,00,13.90
2018,10,22,12,01,13.90
2018,10,22,12,02,13.90
2018,10,22,12,03,13.90
2018,10,22,12,04,13.80
2018,10,22,12,05,13.80
2018,10,22,12,06,13.80
2018,10,22,12,07,13.80
2018,10,22,12,08,13.80
2018,10,22,12,09,13.80
2018,10,22,12,10,13.80
2018,10,22,12,11,13.70
2018,10,22,12,12,13.70
2018,10,22,12,13,13.70
2018,10,22,12,14,13.70
2018,10,22,12,15,13.70
2018,10,22,12,16,13.70
2018,10,22,12,17,13.70
2018,10,22,12,18,13.80
2018,10,22,12,19,13.80
2018,10,22,12,20,13.90
2018,10,22,12,21,13.90
2018,10,22,12,22,13.90
2018,10,22,12,23,14.00
2018,10,22,12,24,14.00
2018,10,22,12,25,14.10
2018,10,22,12,26,14.10
2018,10,22,12,27,14.10
2018,10,22,12,28,14.10
2018,10,22,12,29,14.10
2018,10,22,12,30,14.10
2018,10,22,12,31,14.00
2018,10,22,12,32,14.00
2018,10,22,12,33,14.00
2018,10,22,12,34,14.00
2018,10,22,12,35,14.10
2018,10,22,12,36,14.10
2018,10,22,12,37,14.20
2018,10,22,12,38,14.20
2018,10,22,12,39,14.20
2018,10,22,12,40,14.20
2018,10,22,12,41,14.30
2018,10,22,12,42,14.30
2018,10,22,12,43,14.30
2018,10,22,12,44,14.30
2018,10,22,12,45,14.40
2018,10,22,12,46,14.40
2018,10,22,12,47,14.40
2018,10,22,12,48,14.50
2018,10,22,12,49,14.60
2018,10,22,12,50,14.60
2018,10,22,12,51,14.60
2018,10,22,12,52,14.70
2018,10,22,12,53,14.80
2018,10,22,12,54,14.80
2018,10,22,12,55,14.90
2018,10,22,12,56,14.90
2018,10,22,12,57,15.00
2018,10,22,12,58,15.00
2018,10,22,12,59,15.00
2018,10,22,13,00,15.00
2018,10,22,13,01,14.90
2018,10,22,13,02,14.90
2018,10,22,13,03,14.80
2018,10,22,13,04,14.80
2018,10,22,13,05,14.80
2018,10,22,13,06,14.70
2018,10,22,13,07,14.70
2018,10,22,13,08,14.70
2018,10,22,13,09,14.70
2018,10,22,13,10,14.80
2018,10,22,13,11,14.80
2018,10,22,13,12,14.80
2018,10,22,13,13,14.80
2018,10,22,13,14,14.80
2018,10,22,13,15,14.90
2018,10,22,13,16,14.90
2018,10,22,13,17,14.80
2018,10,22,13,18,14.90
2018,10,22,13,19,14.90
2018,10,22,13,20,15.00
2018,10,22,13,21,15.10
2018,10,22,13,22,15.10
2018,10,22,13,23,15.20
2018,10,22,13,24,15.20
2018,10,22,13,25,15.30
2018,10,22,13,26,15.30
2018,10,22,13,27,15.30
2018,10,22,13,28,15.30
2018,10,22,13,29,15.30
2018,10,22,13,30,15.40
2018,10,22,13,31,15.30
2018,10,22,13,32,15.30
2018,10,22,13,33,15.30
2018,10,22,13,34,15.30
2018,10,22,13,35,15.30
2018,10,22,13,36,15.30
2018,10,22,13,37,15.20
2018,10,22,13,38,15.20
2018,10,22,13,39,15.20
2018,10,22,13,40,15.20
2018,10,22,13,41,15.20
2018,10,22,13,42,15.20
2018,10,22,13,43,15.20
2018,10,22,13,44,15.30
2018,10,22,13,45,15.20
2018,10,22,13,46,15.30
2018,10,22,13,47,15.30
2018,10,22,13,48,15.30
2018,10,22,13,49,15.30
2018,10,22,13,50,15.30
2018,10,22,13,51,15.30
2018,10,22,13,52,15.30
2018,10,22,13,53,15.30
2018,10,22,13,54,15.30
2018,10,22,13,55,15.30
2018,10,22,13,56,15.30
2018,10,22,13,57,15.30
2018,10,22,13,58,15.30
2018,10,22,13,59,15.30
2018,10,22,14,00,15.30
2018,10,22,14,01,15.30
2018,10,22,14,02,15.30
2018,10,22,14,03,15.30
2018,10,22,14,04,15.40
2018,10,22,14,05,15.40
2018,10,22,14,06,15.40
2018,10,22,14,07,15.30
2018,10,22,14,08,15.30
2018,10,22,14,09,15.30
2018,10,22,14,10,15.30
2018,10,22,14,11,15.30
2018,10,22,14,12,15.30
2018,10,22,14,13,15.30
2018,10,22,14,14,15.30
2018,10,22,14,15,15.20
2018,10,22,14,16,15.20
2018,10,22,14,17,15.20
2018,10,22,14,18,15.20
2018,10,22,14,19,15.20
2018,10,22,14,20,15.30
2018,10,22,14,21,15.30
2018,10,22,14,22,15.40
2018,10,22,14,23,15.40
2018,10,22,14,24,15.50
2018,10,22,14,25,15.50
2018,10,22,14,26,15.60
2018,10,22,14,27,15.70
2018,10,22,14,28,15.70
2018,10,22,14,29,15.80
2018,10,22,14,30,15.90
2018,10,22,14,31,15.90
2018,10,22,14,32,16.00
2018,10,22,14,33,16.00
2018,10,22,14,34,16.10
2018,10,22,14,35,16.10
2018,10,22,14,36,16.10
2018,10,22,14,37,16.10
2018,10,22,14,38,16.00
2018,10,22,14,39,16.00
2018,10,22,14,40,16.00
2018,10,22,14,41,16.00
2018,10,22,14,42,16.00
2018,10,22,14,43,16.10
2018,10,22,14,44,16.10
2018,10,22,14,45,16.10
2018,10,22,14,46,16.10
2018,10,22,14,47,16.20
2018,10,22,14,48,16.30
2018,10,22,14,49,16.30
2018,10,22,14,50,16.30
2018,10,22,14,51,16.30
2018,10,22,14,52,16.30
2018,10,22,14,53,16.40
2018,10,22,14,54,16.40
2018,10,22,14,55,16.50
2018,10,22,14,56,16.40
2018,10,22,14,57,16.50
2018,10,22,14,58,16.50
2018,10,22,14,59,16.50
2018,10,22,15,00,16.60
2018,10,22,15,01,16.60
2018,10,22,15,02,16.60
2018,10,22,15,03,16.60
2018,10,22,15,04,16.60
2018,10,22,15,05,16.50
2018,10,22,15,06,16.50
2018,10,22,15,07,16.40
2018,10,22,15,08,16.50
2018,10,22,15,09,16.40
2018,10,22,15,10,16.40
2018,10,22,15,11,16.30
2018,10,22,15,12,16.20
2018,10,22,15,13,16.10
2018,10,22,15,14,16.10
2018,10,22,15,15,16.10
2018,10,22,15,16,16.00
2018,10,22,15,17,16.00
2018,10,22,15,18,16.00
2018,10,22,15,19,16.00
2018,10,22,15,20,16.00
2018,10,22,15,21,15.90
2018,10,22,15,22,15.90
2018,10,22,15,23,15.90
2018,10,22,15,24,15.90
2018,10,22,15,25,15.90
2018,10,22,15,26,15.90
2018,10,22,15,27,15.90
2018,10,22,15,28,15.80
2018,10,22,15,29,15.80
2018,10,22,15,30,15.80
2018,10,22,15,31,15.70
2018,10,22,15,32,15.70
2018,10,22,15,33,15.70
2018,10,22,15,34,15.70
2018,10,22,15,35,15.70
2018,10,22,15,36,15.60
2018,10,22,15,37,15.60
2018,10,22,15,38,15.60
2018,10,22,15,39,15.70
2018,10,22,15,40,15.70
2018,10,22,15,41,15.80
2018,10,22,15,42,15.80
2018,10,22,15,43,15.80
2018,10,22,15,44,15.80
2018,10,22,15,45,15.80
2018,10,22,15,46,15.90
2018,10,22,15,47,15.90
2018,10,22,15,48,15.90
2018,10,22,15,49,15.90
2018,10,22,15,50,15.90
2018,10,22,15,51,15.90
2018,10,22,15,52,15.90
2018,10,22,15,53,15.90
2018,10,22,15,54,15.90
2018,10,22,15,55,15.80
2018,10,22,15,56,15.80
2018,10,22,15,57,15.80
2018,10,22,15,58,15.80
2018,10,22,15,59,15.80
2018,10,22,16,00,15.70
2018,10,22,16,01,15.70
2018,10,22,16,02,15.70
2018,10,22,16,03,15.70
2018,10,22,16,04,15.70
2018,10,22,16,05,15.60
2018,10,22,16,06,15.60
2018,10,22,16,07,15.60
2018,10,22,16,08,15.60
2018,10,22,16,09,15.50
2018,10,22,16,10,15.50
2018,10,22,16,11,15.40
2018,10,22,16,12,15.40
2018,10,22,16,13,15.40
2018,10,22,16,14,15.40
2018,10,22,16,15,15.40
2018,10,22,16,16,15.40
2018,10,22,16,17,15.40
2018,10,22,16,18,15.30
2018,10,22,16,19,15.30
2018,10,22,16,20,15.30
2018,10,22,16,21,15.30
2018,10,22,16,22,15.20
2018,10,22,16,23,15.20
2018,10,22,16,24,15.20
2018,10,22,16,25,15.10
2018,10,22,16,26,15.10
2018,10,22,16,27,15.10
2018,10,22,16,28,15.10
2018,10,22,16,29,15.10
2018,10,22,16,30,15.10
2018,10,22,16,31,15.10
2018,10,22,16,32,15.10
2018,10,22,16,33,15.10
2018,10,22,16,34,15.10
2018,10,22,16,35,15.10
2018,10,22,16,36,15.10
2018,10,22,16,37,15.10
2018,10,22,16,38,15.10
2018,10,22,16,39,15.10
2018,10,22,16,40,15.10
2018,10,22,16,41,15.10
2018,10,22,16,42,15.10
2018,10,22,16,43,15.00
2018,10,22,16,44,15.00
2018,10,22,16,45,15.00
2018,10,22,16,46,14.90
2018,10,22,16,47,14.90
2018,10,22,16,48,14.90
2018,10,22,16,49,14.90
2018,10,22,16,50,14.80
2018,10,22,16,51,14.80
2018,10,22,16,52,14.80
2018,10,22,16,53,14.70
2018,10,22,16,54,14.70
2018,10,22,16,55,14.70
2018,10,22,16,56,14.70
2018,10,22,16,57,14.60
2018,10,22,16,58,14.60
2018,10,22,16,59,14.60
2018,10,22,17,00,14.60
2018,10,22,17,01,14.60
2018,10,22,17,02,14.60
2018,10,22,17,03,14.50
2018,10,22,17,04,14.50
2018,10,22,17,05,14.50
2018,10,22,17,06,14.50
2018,10,22,17,07,14.40
2018,10,22,17,08,14.40
2018,10,22,17,09,14.40
2018,10,22,17,10,14.40
2018,10,22,17,11,14.40
2018,10,22,17,12,14.40
2018,10,22,17,13,14.40
2018,10,22,17,14,14.40
2018,10,22,17,15,14.30
2018,10,22,17,16,14.30
2018,10,22,17,17,14.30
2018,10,22,17,18,14.30
2018,10,22,17,19,14.30
2018,10,22,17,20,14.30
2018,10,22,17,21,14.30
2018,10,22,17,22,14.20
2018,10,22,17,23,14.20
2018,10,22,17,24,14.20
2018,10,22,17,25,14.20
2018,10,22,17,26,14.20
2018,10,22,17,27,14.10
2018,10,22,17,28,14.10
2018,10,22,17,29,14.10
2018,10,22,17,30,14.10
2018,10,22,17,31,14.10
2018,10,22,17,32,14.10
2018,10,22,17,33,14.00
2018,10,22,17,34,14.00
2018,10,22,17,35,14.00
2018,10,22,17,36,13.90
2018,10,22,17,37,13.90
2018,10,22,17,38,13.90
2018,10,22,17,39,13.90
2018,10,22,17,40,13.80
2018,10,22,17,41,13.80
2018,10,22,17,42,13.80
2018,10,22,17,43,13.80
2018,10,22,17,44,13.80
2018,10,22,17,45,13.80